Weather reports worldwide

Advertisment
Parkalompolo, Sweden (2072): temperature & dewpoint: 26.06.2020 07:00:00 - 02.07.2020 07:00:00 (CEST)Parkalompolo, Sweden (2072): wind speed & gusts: 26.06.2020 07:00:00 - 02.07.2020 07:00:00 (CEST)Parkalompolo, Sweden (2072): wind direction: 26.06.2020 07:00:00 - 02.07.2020 07:00:00 (CEST)Parkalompolo, Sweden (2072): reduced air pressure: 26.06.2020 07:00:00 - 02.07.2020 07:00:00 (CEST)Parkalompolo, Sweden (2072): visibility: 26.06.2020 07:00:00 - 02.07.2020 07:00:00 (CEST)Parkalompolo, Sweden (2072): precipitation: 26.06.2020 07:00:00 - 02.07.2020 07:00:00 (CEST)
Date & Time tt [°C] td [°C] ff [km/h] ff [kn] fx [km/h] fx [kn] dd ppp [hPa] vv [km] rr [mm]
02.07.2020 07:00:00 8,1 1,6 13 7 26 14 W 992,9 49 0,0
02.07.2020 06:00:00 7,2 1,9 7 4 18 10 W 992,5 50 0,0
02.07.2020 05:00:00 6,8 1,9 6 4 16 9 W 992,1 50 0,0
02.07.2020 04:00:00 6,6 2,1 4 2 15 8 WSW 991,8 50 0,0
02.07.2020 03:00:00 6,6 2,9 4 2 15 8 WSW 991,3 50 0,0
02.07.2020 02:00:00 6,9 3,1 3 2 13 7 WSW 990,8 50 0,0
02.07.2020 01:00:00 7,3 3,7 5 3 13 7 WSW 990,5 50 0,0
02.07.2020 00:00:00 7,4 3,1 4 2 19 11 SW 990,2 50 0,0
01.07.2020 23:00:00 7,9 2,8 7 4 21 12 W 989,7 50 0,0
01.07.2020 22:00:00 8,3 3,5 4 2 14 7 W 989,0 50 0,0
01.07.2020 21:00:00 8,7 3,9 5 3 20 11 W 988,4 50 0,0
01.07.2020 20:00:00 9,1 3,7 3 2 21 11 WNW 988,0 50 0,0
01.07.2020 19:00:00 9,2 3,4 14 7 30 16 WNW 987,5 50 0,0
01.07.2020 18:00:00 10,0 4,6 12 7 29 15 WNW 986,8 50 0,0
01.07.2020 17:00:00 9,4 4,8 8 5 22 12 WNW 986,3 42 0,0
01.07.2020 16:00:00 9,4 5,6 9 5 22 12 W 985,7 46 0,0
01.07.2020 15:00:00 9,1 5,5 10 5 28 15 WNW 985,1 42 0,0
01.07.2020 14:00:00 8,7 6,1 12 7 27 15 NW 984,6 15 0,2
01.07.2020 13:00:00 7,8 5,6 11 6 30 16 NW 984,4 12 0,5
01.07.2020 12:00:00 7,6 5,4 14 7 30 16 NNW 983,9 14 0,3
01.07.2020 11:00:00 7,4 4,9 14 8 32 17 NNW 983,4 33 0,1
01.07.2020 10:00:00 7,0 5,0 13 7 35 19 NNW 983,2 17 1,5
01.07.2020 09:00:00 6,4 4,6 14 8 28 15 NNW 983,3 11 1,7
01.07.2020 08:00:00 5,8 4,0 11 6 27 14 NNW 983,4 14 1,3
01.07.2020 07:00:00 5,4 3,9 16 8 32 18 N 983,6 16 0,7
01.07.2020 06:00:00 5,4 3,7 13 7 26 14 N 983,8 16 0,9
01.07.2020 05:00:00 5,4 4,0 13 7 27 15 N 984,3 7 3,2
01.07.2020 04:00:00 5,8 4,4 12 7 26 14 N 984,4 27 0,2
01.07.2020 03:00:00 5,8 4,5 12 7 25 14 N 985,0 20 0,0
01.07.2020 02:00:00 5,9 4,5 10 6 23 12 N 985,4 26 0,0
01.07.2020 01:00:00 6,2 4,8 12 7 24 13 N 986,0 35 0,0
01.07.2020 00:00:00 6,5 5,1 14 7 26 14 N 986,5 36 0,0
30.06.2020 23:00:00 6,9 5,5 13 7 22 12 N 987,1 18 0,1
30.06.2020 22:00:00 7,2 5,8 10 6 19 10 N 987,9 9 0,0
30.06.2020 21:00:00 7,3 5,9 11 6 22 12 N 987,9 8 0,0
30.06.2020 20:00:00 7,3 5,8 9 5 21 12 N 988,7 5 0,0
30.06.2020 19:00:00 7,2 5,7 10 5 20 11 N 989,1 3,9 0,0
30.06.2020 18:00:00 7,3 5,8 10 6 21 12 N 989,6 3,8 0,0
30.06.2020 17:00:00 7,8 5,9 10 5 21 11 NNE 989,9 22 0,0
30.06.2020 16:00:00 8,1 5,9 10 5 22 12 NNE 990,2 50 0,0
30.06.2020 15:00:00 8,1 5,9 12 6 28 15 NNE 990,3 49 0,0
30.06.2020 14:00:00 7,7 5,7 16 9 25 13 NNE 990,4 45 0,0
30.06.2020 13:00:00 7,6 5,6 12 7 26 14 NNE 990,9 43 0,0
30.06.2020 12:00:00 6,9 5,1 15 8 25 13 NNE 991,2 49 0,0
30.06.2020 11:00:00 6,3 4,8 14 8 26 14 NNE 991,7 9 0,3
30.06.2020 10:00:00 5,8 4,3 12 6 24 13 N 991,6 6 1,4
30.06.2020 09:00:00 5,4 4,0 15 8 29 16 NNE 991,5 5 1,3
30.06.2020 08:00:00 5,5 4,5 15 8 29 15 N 991,8 6 2,7
30.06.2020 07:00:00 5,6 4,4 14 8 32 18 N 992,1 8 1,7
30.06.2020 06:00:00 6,8 5,7 17 9 28 15 N 992,4 6 12,4
30.06.2020 05:00:00 9,8 8,7 15 8 27 15 NNE 992,0 4,9 6,7
30.06.2020 04:00:00 11,5 10,1 8 4 21 11 NE 992,3 6 4,3
30.06.2020 03:00:00 11,3 9,6 8 4 28 15 ENE 993,3 8 10,4
30.06.2020 02:00:00 11,4 9,8 8 5 19 10 NNW 995,0 15 2,1
30.06.2020 01:00:00 11,5 9,4 5 3 11 6 E 996,2 12 0,7
30.06.2020 00:00:00 11,6 10,0 7 4 18 10 E 997,0 10 2,8
29.06.2020 23:00:00 11,8 10,0 3 2 16 9 NE 998,1 6 5,8
29.06.2020 22:00:00 11,7 10,1 7 4 13 7 SE 998,9 3,6 3,9
29.06.2020 21:00:00 11,7 9,9 4 2 18 10 ESE 999,9 2,5 -
29.06.2020 20:00:00 11,2 9,6 6 4 27 15 SE 1001,8 - -
29.06.2020 19:00:00 15,3 12,1 11 6 21 11 N 1000,1 - 0,0
29.06.2020 18:00:00 18,5 10,1 11 6 22 12 SSE 1000,9 - 0,0
29.06.2020 17:00:00 19,3 8,9 9 5 22 12 S 1002,0 - 0,0
29.06.2020 16:00:00 19,4 7,8 11 6 26 14 S 1003,2 - 0,0
29.06.2020 15:00:00 18,9 7,0 11 6 28 15 SSW 1004,2 - 0,0
29.06.2020 14:00:00 18,3 7,4 9 5 20 11 SSE 1005,0 - 0,0
29.06.2020 13:00:00 17,5 6,4 11 6 20 11 S 1005,9 - 0,0
29.06.2020 12:00:00 17,5 7,0 10 5 21 12 S 1006,5 - 0,0
29.06.2020 11:00:00 17,3 4,6 12 6 25 14 S 1007,2 - 0,0
29.06.2020 10:00:00 17,2 3,5 13 7 22 12 SSE 1007,7 - 0,0
29.06.2020 09:00:00 16,6 2,9 13 7 27 14 SSW 1008,4 - 0,0
29.06.2020 08:00:00 16,1 4,8 9 5 19 11 S 1009,1 - 0,0
29.06.2020 07:00:00 15,0 4,7 7 4 21 11 S 1009,9 - 0,0
29.06.2020 06:00:00 15,4 4,7 8 4 13 7 S 1010,5 - 0,0
29.06.2020 05:00:00 12,8 6,8 0 0 3 2 N 1011,3 - 0,0
29.06.2020 04:00:00 12,0 6,3 0 0 3 2 N 1012,0 - 0,0
29.06.2020 03:00:00 10,2 6,0 0 0 4 2 N 1012,7 - 0,0
29.06.2020 02:00:00 9,8 5,6 0 0 7 4 N 1013,1 - 0,0
29.06.2020 01:00:00 10,7 5,0 3 2 7 4 S 1013,2 - 0,0
29.06.2020 00:00:00 10,7 4,8 0 0 5 3 N 1013,3 - 0,0
28.06.2020 23:00:00 13,7 4,8 4 2 8 4 SSE 1013,0 - 0,0
28.06.2020 22:00:00 15,5 4,5 2 1 10 6 S 1013,0 - 0,0
28.06.2020 21:00:00 18,0 3,5 7 4 14 7 SSW 1012,9 - 0,0
28.06.2020 20:00:00 18,7 2,9 5 3 11 6 SSW 1013,0 - 0,0
28.06.2020 19:00:00 18,1 4,6 4 2 15 8 E 1013,5 - 0,0
28.06.2020 18:00:00 19,1 3,7 7 4 16 9 S 1013,7 - 0,0
28.06.2020 17:00:00 19,1 3,7 6 3 15 8 SE 1014,0 - 0,0
28.06.2020 16:00:00 18,7 3,3 7 4 18 10 SW 1014,3 - 0,0
28.06.2020 15:00:00 17,2 4,2 7 4 23 12 S 1015,1 - 0,0
28.06.2020 14:00:00 17,6 2,7 9 5 27 15 S 1015,4 - 0,0
28.06.2020 13:00:00 18,3 4,5 4 2 18 10 E 1015,7 - 0,0
28.06.2020 12:00:00 16,5 3,5 8 4 20 11 E 1016,4 - 0,0
28.06.2020 11:00:00 16,9 6,4 9 5 18 10 SW 1016,7 - 0,0
28.06.2020 10:00:00 15,8 5,4 6 3 18 10 SSE 1017,5 - 0,0
28.06.2020 09:00:00 14,8 5,3 5 3 13 7 ESE 1017,8 - 0,0
28.06.2020 08:00:00 13,6 4,5 5 3 13 7 SSW 1018,4 - 0,0
28.06.2020 07:00:00 12,7 4,6 3 2 8 4 SSW 1019,0 - 0,0
28.06.2020 06:00:00 11,5 4,5 3 2 8 5 ESE 1019,6 - 0,0
28.06.2020 05:00:00 10,5 4,8 2 1 6 3 ESE 1020,1 - 0,0
28.06.2020 04:00:00 9,5 4,1 0 0 7 4 N 1020,2 - 0,0
28.06.2020 03:00:00 8,1 3,9 2 1 7 4 ENE 1020,4 - 0,0
28.06.2020 02:00:00 7,2 3,8 3 1 7 4 ENE 1020,6 - 0,0
28.06.2020 01:00:00 8,5 4,1 3 1 9 5 E 1020,5 - 0,0
28.06.2020 00:00:00 9,5 4,5 3 2 11 6 E 1020,2 - 0,0
27.06.2020 23:00:00 11,3 4,3 5 3 10 5 ENE 1019,6 - 0,0
27.06.2020 22:00:00 13,0 4,2 4 2 14 8 E 1019,0 - 0,0
27.06.2020 21:00:00 14,4 3,5 7 4 14 8 ENE 1018,7 - 0,0
27.06.2020 20:00:00 14,9 3,7 9 5 15 8 ENE 1018,6 - 0,0
27.06.2020 19:00:00 15,4 3,8 6 3 18 10 ENE 1018,6 - 0,0
27.06.2020 18:00:00 15,4 3,8 9 5 23 13 NNE 1018,7 - 0,0
27.06.2020 17:00:00 14,9 3,4 13 7 27 15 NNE 1019,2 - 0,0
27.06.2020 16:00:00 15,3 3,4 6 4 33 18 NW 1019,4 - 0,0
27.06.2020 15:00:00 13,9 3,4 10 5 21 11 ENE 1019,9 - 0,0
27.06.2020 14:00:00 13,9 3,6 11 6 25 14 NE 1020,2 - 0,0
27.06.2020 13:00:00 13,2 3,6 8 4 23 12 NE 1020,5 - 0,0
27.06.2020 12:00:00 13,2 4,4 11 6 23 13 NNE 1020,7 - 0,0
27.06.2020 11:00:00 13,1 3,5 9 5 24 13 NNE 1020,9 - 0,0
27.06.2020 10:00:00 11,6 3,4 12 6 27 15 NNE 1021,0 - 0,0
27.06.2020 09:00:00 10,8 2,9 14 8 26 14 NNE 1021,0 - 0,0
27.06.2020 08:00:00 10,6 3,4 17 9 31 17 N 1021,1 - 0,0
27.06.2020 07:00:00 10,0 3,5 13 7 36 19 N 1021,1 - 0,0
27.06.2020 06:00:00 9,4 3,2 16 9 33 18 N 1021,0 - 0,0
27.06.2020 05:00:00 9,1 3,7 14 7 30 16 NNW 1020,6 - 0,0
27.06.2020 04:00:00 8,3 3,5 7 4 14 7 NW 1020,5 - 0,0
27.06.2020 03:00:00 7,4 3,3 5 3 11 6 WNW 1020,1 - 0,0
27.06.2020 02:00:00 7,5 3,5 5 3 16 8 NNW 1019,9 - 0,0
27.06.2020 01:00:00 8,6 3,4 8 4 20 11 NW 1019,5 - 0,0
27.06.2020 00:00:00 8,6 3,4 2 1 24 13 N 1019,2 - 0,0
26.06.2020 23:00:00 10,0 3,9 8 4 25 14 N 1018,9 - 0,0
26.06.2020 22:00:00 12,0 4,0 10 6 33 18 NNW 1017,8 - 0,0
26.06.2020 21:00:00 13,2 3,0 11 6 29 15 NW 1017,6 - 0,0
26.06.2020 20:00:00 14,3 2,8 14 8 29 15 NNW 1017,1 - 0,0
26.06.2020 19:00:00 15,4 2,9 13 7 33 18 NW 1017,0 - 0,0
26.06.2020 18:00:00 15,8 3,2 15 8 36 19 WNW 1016,8 - 0,0
26.06.2020 17:00:00 16,5 3,2 16 9 35 19 NW 1016,8 - 0,0
26.06.2020 16:00:00 16,9 2,9 15 8 35 19 NW 1016,7 - 0,0
26.06.2020 15:00:00 17,6 3,5 16 8 35 19 NW 1016,8 - 0,0
26.06.2020 14:00:00 17,8 2,9 13 7 34 18 WNW 1016,6 - 0,0
26.06.2020 13:00:00 17,6 3,8 15 8 31 17 WNW 1016,8 - 0,0
26.06.2020 12:00:00 16,7 3,7 12 7 32 17 W 1017,1 - 0,0
26.06.2020 11:00:00 15,7 3,8 11 6 26 14 W 1017,4 - 0,0
26.06.2020 10:00:00 14,8 3,6 8 5 27 15 W 1017,6 - 0,0
26.06.2020 09:00:00 15,3 3,4 14 8 27 15 WNW 1017,7 - 0,0
26.06.2020 08:00:00 14,5 3,9 10 5 24 13 WNW 1018,0 - 0,0
26.06.2020 07:00:00 13,4 3,7 11 6 19 11 WNW 1018,4 - 0,0

tt = temperature
td = dewpoint
ff = wind speed
fx = gusts
dd = wind direction
ppp = reduced air pressure
vv = visibility
rr = precipitation

Next stations